Jackson Invitational 2016 vs Jackson Invitational 2014

Aggregate Data Points
Difference This Meet That Meet
Overall Athletes -146 745 891
Overall Average +40.25 21:37.37 20:57.12
1st-10th Place +8.53 16:00.35 15:51.82
1st-25th Place +5.36 16:16.78 16:11.42
1st-50th Place +3.36 16:34.52 16:31.16
1st-100th Place +7.79 17:00.89 16:53.10
Common Athletes -- -- 75
Ran Faster 41 58 17
Ran Season Best 4 12 8
Average Time -46.38 19:37.83 20:24.21
Median Time -58.65 19:17.80 20:16.45
Middle 80% Times -50.26 19:22.53 20:12.80
Top 10% Times -1:01.86 16:08.60 17:10.46
Top 25% Times -1:04.21 16:36.27 17:40.48
Top 50% Times -1:00.53 17:22.80 18:23.33
Bottom 50% Times -31.01 21:21.86 21:52.87
Bottom 25% Times -9.31 23:39.51 23:48.82
Bottom 10% Times +2.05 25:26.98 25:24.93
Average Difference -46.38 -- --
Median Difference -1:11.85 -- --
Middle 80% Difference -50.11 -- --
Top 10% Difference -35.11 -- --
Top 50% Difference -54.62 -- --
Top 25% Difference -51.72 -- --
Top 50% Difference -54.62 -- --
Bottom 50% Difference -38.81 -- --
Bottom 25% Difference -3.42 -- --
Bottom 10% Difference -22.10 -- --

Performances of Common Athletes
Athlete Team Difference This Meet That Meet
David Mitter Howell -1:11.90 15:53.50 17:05.40
Luke Wallace Birmingham Seaholm -51.90 15:55.70 16:47.60
Ben Cracraft Northville -39.40 16:02.00 16:41.40
Robbie Lohr Traverse City West -2:03.40 16:07.70 18:11.10
Ben Williams Birmingham Seaholm -1:44.00 16:08.00 17:52.00
Spencer Atkinson Grand Blanc -1:40.80 16:11.80 17:52.60
Lee Owens Howell -1:26.40 16:18.90 17:45.30
Evan Koerschner Saline -4.80 16:31.20 16:36.00
Evan Ferrante Northville -1:21.00 16:36.80 17:57.80
Andrew Dingwall Troy -1:40.00 16:41.10 18:21.10
Marcus Jackson Royal Oak -1:50.60 16:41.40 18:32.00
Michael Greeley Temperance-Bedford -1:40.50 16:43.40 18:23.90
Hayden Holmes Traverse City West -57.80 16:50.80 17:48.60
Jacob Dean Traverse City West -2:14.10 16:54.10 19:08.20
Gabe Ruyon Kalamazoo Loy Norrix -39.80 16:55.60 17:35.40
Nate Peterson Grand Blanc -58.80 17:07.10 18:05.90
Nick Friar Traverse City Central -37.10 17:15.20 17:52.30
Alex Zittleman Temperance-Bedford -1:43.10 17:17.20 19:00.30
Patrick Fegan Royal Oak -1:18.50 17:17.70 18:36.20
Robert Kunselman Jackson +10.70 17:33.00 17:22.30
Maggie Farrell Battle Creek Lakeview -3:05.21 17:22.70 20:27.91
David Seago Birmingham Seaholm +2.60 17:32.90 17:30.30
Rocco Jelsomeno Wyandotte Roosevelt -1:11.50 17:31.30 18:42.80
Drew Daenzer Traverse City West -51.30 17:38.50 18:29.80
Zach Dittenbir Traverse City West -26.60 17:43.80 18:10.40
Anne Forsyth Ann Arbor Pioneer -1:06.67 17:44.20 18:50.87
Trevor Sepanik Traverse City Central +0.50 17:52.10 17:51.60
Audrey Ladd Birmingham Seaholm -1:12.50 17:56.70 19:09.20
Travis Grube Kalamazoo Loy Norrix -1:16.40 18:07.80 19:24.20
Andy Johnson Royal Oak -12.70 18:09.40 18:22.10
Ryan Draybuck Northville -17.20 18:14.20 18:31.40
Rachel McCardell Birmingham Seaholm -44.16 18:17.00 19:01.16
Cayla Eckenroth Northville -29.55 18:19.00 18:48.55
Jacalyn Overdier Ann Arbor Pioneer -27.69 18:32.60 19:00.29
Zach Skinner Kalamazoo Loy Norrix -1:38.30 18:54.90 20:33.20
Logann Haluszka Battle Creek Lakeview -1:11.85 19:04.60 20:16.45
Hunter Krecow Traverse City West -52.30 19:04.70 19:57.00
David Jordan Temperance-Bedford -1:01.80 19:17.80 20:19.60
Sydney Dawes Ann Arbor Pioneer +20.50 19:41.90 19:21.40
John Kraine Temperance-Bedford +14.30 19:42.60 19:28.30
Justin Bennett Temperance-Bedford -1:23.10 19:40.10 21:03.20
Alexa Davis Kalamazoo Loy Norrix -2:32.84 19:42.40 22:15.24
Elizabeth Kos Ann Arbor Pioneer -1:31.61 19:47.20 21:18.81
Emma Pinchak East Kentwood -2:47.08 19:54.00 22:41.08
Danielle Waidley Dexter -19.95 19:55.20 20:15.15
Faith Kiprotich East Kentwood -1:23.69 19:59.30 21:22.99
Taylor Watson Battle Creek Lakeview -2:22.60 20:04.00 22:26.60
Leah Warren Birmingham Seaholm -53.06 20:09.90 21:02.96
Rachel Zimmer Northville -59.02 20:10.80 21:09.82
Erin McCann Salem -24.62 20:16.00 20:40.62
Taylor Coyer Battle Creek Lakeview -2:11.18 20:17.00 22:28.18
Katie Chevoor Northville -49.32 20:22.70 21:12.02
Meghan Monaghan Troy -47.81 20:23.80 21:11.61
Emily Rudberg Northville -1:10.58 20:30.80 21:41.38
Madalyn Simko Salem +23.89 20:54.80 20:30.91
Jackie Brandonisio Birmingham Seaholm -26.51 20:49.50 21:16.01
Lindsey Hayter Dexter -0.35 20:52.80 20:53.15
Amber Wiederhold Temperance-Bedford +1:27.80 22:30.30 21:02.50
Shayla Pham East Kentwood -2:40.70 21:24.10 24:04.80
Haley Alaspa Sault Ste. Marie +1:25.40 22:59.21 21:33.81
Alison Feng Troy +1:07.08 22:48.20 21:41.12
Julia Bell Dexter -2:00.66 21:52.20 23:52.86
Maria Przebienda Ann Arbor Gabriel Richard +41.81 22:59.51 22:17.70
Jayme Mannor Howell +4.81 22:29.20 22:24.39
Charlotte Ramser Ann Arbor Pioneer -19.48 22:28.21 22:47.69
Erin Kloostra Kalamazoo Loy Norrix -1:46.41 22:42.70 24:29.11
Sophia Hamelink Grand Blanc +2.47 22:49.60 22:47.13
Caroline Stromberg Troy +26.27 23:14.90 22:48.63
Mary Benz Ann Arbor Gabriel Richard -11.29 22:56.41 23:07.70
Victoria Nagy Sault Ste. Marie +1:44.46 24:48.28 23:03.82
Anna Piloske Chelsea -6.03 23:10.42 23:16.45
Michelle Jonik Ann Arbor Gabriel Richard +14.15 23:29.57 23:15.42
Faith Baxter Jackson +1:49.64 25:16.00 23:26.36
Rachel Fegan Manchester +15.12 28:04.66 27:49.54
Rachel Nau Jackson Northwest -32.43 32:32.48 33:04.91